Weather History for KGMU - May, 2013

Change the Weather History Date:

Monday, May 13, 2013

  Actual Average Record
Temperature  
Mean Temperature 58 °F -  
Max Temperature 70 °F 77 °F 90 °F (2000)
Min Temperature 46 °F 56 °F 46 °F (2006)
Degree Days  
Heating Degree Days 8    
Growing Degree Days 8 (Base 50)    
Moisture  
Dew Point 31 °F    
Average Humidity 37    
Maximum Humidity 56    
Minimum Humidity 22    
Precipitation  
Precipitation 0.00 in - - ()
Sea Level Pressure  
Sea Level Pressure 30.13 in    
Wind  
Wind Speed 4 mph (North)    
Max Wind Speed 9 mph    
Max Gust Speed 17 mph    
Visibility 10 miles    
Events      
Averages and records for this station are not official NWS values.
T = Trace of Precipitation, MM = Missing Value Source: NWS Daily Summary

Daily Weather History Graph

Daily Weather History Graph

Search for Another Location

Airport or City:

Trip Planner

Search our weather history database for the weather conditions in past years. The results will help you decide how hot, cold, wet, or windy it might be!

Date:

Astronomy

May. 13, 2013 Rise Set
Actual Time 6:27 AM EDT 8:24 PM EDT
Civil Twilight 5:59 AM EDT 8:52 PM EDT
Nautical Twilight 5:25 AM EDT 9:26 PM EDT
Astronomical Twilight 4:49 AM EDT 10:02 PM EDT
Moon 9:13 AM EDT (5/13) 11:32 PM EDT (5/13)
Length of Visible Light 14h 52m
Length of Day
13h 56m
Waxing Crescent, 12% of the Moon is Illuminated
May 13
Waxing Crescent
May 18
First Quarter
May 25
Full
May 31
Last Quarter
Jun 8
New

Hourly Weather History & Observations

Time (EDT) Temp. Dew Point Humidity Pressure Visibility Wind Dir Wind Speed Gust Speed Precip Events Conditions
12:53 AM 52.0 °F 34.0 °F 50% 30.07 in 10.0 mi North 4.6 mph - N/A   Clear
1:53 AM 54.0 °F 30.0 °F 40% 30.07 in 10.0 mi Calm Calm - N/A   Clear
2:53 AM 52.0 °F 30.0 °F 43% 30.07 in 10.0 mi North 3.5 mph - N/A   Clear
3:53 AM 51.1 °F 30.9 °F 46% 30.09 in 10.0 mi Calm Calm - N/A   Clear
4:53 AM 50.0 °F 30.9 °F 48% 30.10 in 10.0 mi Calm Calm - N/A   Clear
5:53 AM 46.9 °F 32.0 °F 56% 30.12 in 10.0 mi North 5.8 mph - N/A   Clear
6:53 AM 48.0 °F 32.0 °F 54% 30.14 in 10.0 mi Calm Calm - N/A   Clear
7:53 AM 52.0 °F 33.1 °F 49% 30.17 in 10.0 mi North 3.5 mph - N/A   Clear
8:53 AM 55.9 °F 32.0 °F 40% 30.18 in 10.0 mi North 5.8 mph - N/A   Clear
9:53 AM 57.9 °F 32.0 °F 37% 30.19 in 10.0 mi ENE 5.8 mph - N/A   Clear
10:53 AM 61.0 °F 30.0 °F 31% 30.19 in 10.0 mi West 8.1 mph - N/A   Clear
11:53 AM 61.0 °F 28.0 °F 29% 30.19 in 10.0 mi West 4.6 mph - N/A   Clear
12:53 PM 66.0 °F 32.0 °F 28% 30.17 in 10.0 mi Calm Calm - N/A   Clear
1:53 PM 66.0 °F 30.0 °F 26% 30.14 in 10.0 mi SW 8.1 mph - N/A   Clear
2:53 PM 68.0 °F 30.9 °F 25% 30.12 in 10.0 mi Calm Calm - N/A   Clear
4:53 PM 69.1 °F 28.0 °F 22% 30.07 in 10.0 mi SSW 9.2 mph 17.3 mph N/A   Clear
5:53 PM 69.1 °F 30.0 °F 23% 30.06 in 10.0 mi South 6.9 mph - N/A   Clear
6:53 PM 68.0 °F 30.9 °F 25% 30.06 in 10.0 mi South 5.8 mph - N/A   Clear
8:53 PM 62.1 °F 28.0 °F 28% 30.11 in 10.0 mi NE 8.1 mph - N/A   Clear
9:53 PM 57.9 °F 28.9 °F 33% 30.15 in 10.0 mi North 5.8 mph - N/A   Clear
10:53 PM 57.9 °F 28.9 °F 33% 30.17 in 10.0 mi Calm Calm - N/A   Clear
11:53 PM 55.0 °F 32.0 °F 42% 30.19 in 10.0 mi North 3.5 mph - N/A   Clear